Location: Chipmunk Meadow
(41.1540°N, 122.8814°W)
Time: 15:24:38
(UTC+00:00)

Cosmos 1867 - Pass Details

Date: 13 April 2024
Orbit: 772 x 802 km, 65.0° (Epoch: 21 May)

Event Time Altitude Azimuth Distance (km) Brightness Sun altitude
Rises 12:08:48 0° 318° (NW) 3,318 6.7 -15.9°
Reaches altitude 10° 12:11:27 10° 309° (NW) 2,382 5.8 -15.4°
Maximum altitude 12:16:15 32° 248° (WSW) 1,353 4.2 -14.6°
Drops below altitude 10° 12:21:00 10° 187° (S) 2,359 5.7 -13.8°
Sets 12:23:38 0° 177° (S) 3,280 6.5 -13.4°
